sat.trackr.live / text

‹ back to catalog

STARLINK-4333

NORAD 53088 · 2022-077AX

PAYLOAD ACTIVE UNKNOWN

§ Identity

Operator
Country
US
Launch date
2022-07-11
Launch site
AFWTR
Launch vehicle
Mass (kg)
RCS (m²)

Purposes: comms

External: N2YO · Heavens-Above · Gunter

§ Orbital elements

Epoch: 2026-05-25T01:59:08.755008Z

Period
95.64 min
Inclination
97.4455°
Eccentricity
0.0001219
Mean motion
15.05605580 rev/d
Perigee alt
548.8 km
Apogee alt
550.5 km
Semi-major
6,927.8 km
B*
5.7452e-4
RAAN
324.9591°
Arg perigee
99.6098°
Mean anomaly
260.5267°
Rev number
21,240

§ Raw data

STARLINK-43331 53088U 22077AX  26145.08274022  .00008231  00000+0  57452-3 0  99942 53088  97.4455 324.9591 0001219  99.6098 260.5267 15.05605580212409

JSON: /api/v1/satellites/53088 · /tle

For live sub-satellite position, see the globe view (requires WebGL).

§ Visibility from observer

Set your observer location to see the next 7 days of passes ≥ 10°. The values pass through the URL so the page stays shareable.

No JS? Fill the form by hand. The geolocation button needs JavaScript.